TimeEDT,TemperatureF,Dew PointF,Humidity,Sea Level PressureIn,VisibilityMPH,Wind Direction,Wind SpeedMPH,Gust SpeedMPH,PrecipitationIn,Events,Conditions,WindDirDegrees,DateUTC
12:00 AM,77.0,77.0,100,29.99,6.2,Variable,2.3,-,N/A,Rain-Thunderstorm,Light Thunderstorms and Rain,0,2013-09-20 04:00:00
1:00 AM,78.8,75.2,89,29.96,6.2,ESE,4.6,-,N/A,Rain,Light Rain,110,2013-09-20 05:00:00
2:00 AM,79,78,97,29.96,9,Calm,Calm,,,Rain,Light Rain Showers,,2013-09-20 06:00:00
2:00 AM,78.8,78.8,100,29.95,6.2,Calm,Calm,-,N/A,,Mostly Cloudy,0,2013-09-20 06:00:00
5:00 AM,79,76,87,29.92,9,NNE,3.5,,,,Partly Cloudy,30,2013-09-20 09:00:00
5:00 AM,78.8,75.2,89,29.92,6.2,NNE,3.5,-,N/A,,Mostly Cloudy,30,2013-09-20 09:00:00
6:00 AM,77.0,73.4,89,29.93,6.2,NNE,9.2,-,N/A,,Mostly Cloudy,20,2013-09-20 10:00:00
7:00 AM,78.8,73.4,83,29.94,6.2,NNE,9.2,-,N/A,,Mostly Cloudy,30,2013-09-20 11:00:00
8:00 AM,81,75,77,29.96,8,NNE,9.2,,,,Mostly Cloudy,20,2013-09-20 12:00:00
8:00 AM,80.6,75.2,84,29.95,6.2,NNE,9.2,-,N/A,,Mostly Cloudy,20,2013-09-20 12:00:00
9:00 AM,84.2,73.4,70,29.96,6.2,NNE,11.5,-,N/A,,Mostly Cloudy,20,2013-09-20 13:00:00
10:00 AM,84.2,73.4,70,29.98,6.2,NNE,11.5,-,N/A,,Mostly Cloudy,20,2013-09-20 14:00:00
11:00 AM,85,76,68,29.99,8,NNE,11.5,,,,Partly Cloudy,20,2013-09-20 15:00:00
11:00 AM,84.2,71.6,66,29.98,6.2,NNE,11.5,-,N/A,,Mostly Cloudy,20,2013-09-20 15:00:00
12:00 PM,86.0,75.2,70,29.97,6.2,NNE,9.2,-,N/A,,Mostly Cloudy,30,2013-09-20 16:00:00
1:00 PM,86.0,75.2,70,29.96,6.2,NNE,9.2,-,N/A,,Scattered Clouds,20,2013-09-20 17:00:00
2:00 PM,87,74,57,29.95,9,NNE,10.4,,,,Partly Cloudy,30,2013-09-20 18:00:00
2:00 PM,87.8,73.4,62,29.95,6.2,NNE,10.4,-,N/A,,Scattered Clouds,30,2013-09-20 18:00:00
3:00 PM,87.8,71.6,58,29.92,6.2,North,6.9,-,N/A,,Scattered Clouds,10,2013-09-20 19:00:00
4:00 PM,86.0,69.8,58,29.90,6.2,North,5.8,-,N/A,,Partly Cloudy,10,2013-09-20 20:00:00
5:00 PM,86,73,57,29.88,8,North,6.9,,,,Scattered Clouds,10,2013-09-20 21:00:00
5:00 PM,86.0,73.4,66,29.88,6.2,North,6.9,-,N/A,,Partly Cloudy,10,2013-09-20 21:00:00
6:00 PM,84.2,71.6,66,29.88,6.2,NNE,6.9,-,N/A,,Partly Cloudy,20,2013-09-20 22:00:00
7:00 PM,80.6,73.4,79,29.88,6.2,North,3.5,-,N/A,,Partly Cloudy,360,2013-09-20 23:00:00
8:00 PM,81,73,72,29.88,8,NNE,2.3,,,,Scattered Clouds,20,2013-09-21 00:00:00
8:00 PM,80.6,73.4,79,29.88,6.2,NNE,2.3,-,N/A,,Partly Cloudy,20,2013-09-21 00:00:00
9:00 PM,80.6,71.6,74,29.90,6.2,NE,3.5,-,N/A,,Partly Cloudy,40,2013-09-21 01:00:00
10:00 PM,80.6,71.6,74,29.91,6.2,NE,2.3,-,N/A,,Partly Cloudy,40,2013-09-21 02:00:00
11:00 PM,78.8,73.4,83,29.91,6.2,Calm,Calm,-,N/A,,Partly Cloudy,0,2013-09-21 03:00:00